When you browse on this site, cookies collect data to enhance your experience and personalize the content and advertising you see.
Visit our Privacy Policy to learn more. By continuing to use the site, you agree to this use of cookies and data.
  • In Portugal
  • List of Countries
  • For 7 days
  • Water Temperature
  • Satellite Maps
  • Weather Map
  • Weather Widgets
  • user-avatar
    Login

    Hourly Weather Salzburg

    Today, 24 March, Sunday

    Time Temperature Precipitation Wind Pressure Humidity
    00:00 +1°C° 0 mm 1 mps 629 mmHg 90%
    01:00 -1°C° 0 mm 2 mps 629 mmHg 88%
    02:00 -1°C° 0 mm 2 mps 629 mmHg 88%
    03:00 -1°C° 0 mm 2 mps 629 mmHg 87%
    04:00 -2°C° 0 mm 2 mps 628 mmHg 87%
    05:00 -1°C° 0 mm 2 mps 628 mmHg 86%
    06:00 -1°C° 0 mm 2 mps 628 mmHg 85%
    07:00 +1°C° 0 mm 1 mps 629 mmHg 82%
    08:00 +4°C° 0 mm 1 mps 629 mmHg 78%
    09:00 +6°C° 0 mm 1 mps 630 mmHg 74%
    10:00 +8°C° 0 mm 0 mps 630 mmHg 71%
    11:00 +9°C° 0 mm 0 mps 630 mmHg 68%
    12:00 +11°C° 0 mm 1 mps 630 mmHg 65%
    13:00 +11°C° 0 mm 1 mps 630 mmHg 63%
    14:00 +11°C° 0 mm 1 mps 629 mmHg 67%
    15:00 +10°C° 0 mm 1 mps 629 mmHg 71%
    16:00 +10°C° 0 mm 1 mps 628 mmHg 75%
    17:00 +7°C° 0 mm 1 mps 627 mmHg 81%
    18:00 +5°C° 0 mm 1 mps 626 mmHg 87%
    19:00 +3°C° 0 mm 1 mps 626 mmHg 93%
    20:00 +3°C° 0 mm 1 mps 626 mmHg 93%
    21:00 +3°C° 0 mm 1 mps 626 mmHg 93%
    22:00 +2°C° 0 mm 1 mps 626 mmHg 93%
    23:00 +2°C° 0.1 mm 1 mps 626 mmHg 95%

    Tomorrow, 25 March, Monday

    Time Temperature Precipitation Wind Pressure Humidity
    00:00 +2°C° 0.1 mm 1 mps 626 mmHg 96%
    01:00 +1°C° 0.1 mm 1 mps 625 mmHg 97%
    02:00 +1°C° 0.1 mm 1 mps 625 mmHg 97%
    03:00 +1°C° 0.1 mm 1 mps 625 mmHg 97%
    04:00 +1°C° 0.1 mm 1 mps 625 mmHg 98%
    05:00 +1°C° 0.3 mm 1 mps 625 mmHg 97%
    06:00 +1°C° 0.3 mm 1 mps 625 mmHg 97%
    07:00 +1°C° 0.3 mm 1 mps 624 mmHg 97%
    08:00 +1°C° 0.4 mm 1 mps 624 mmHg 95%
    09:00 -1°C° 0.4 mm 2 mps 624 mmHg 94%
    10:00 -1°C° 0.4 mm 2 mps 624 mmHg 92%
    11:00 -1°C° 0.5 mm 2 mps 623 mmHg 91%
    12:00 -1°C° 0.5 mm 2 mps 623 mmHg 90%
    13:00 -1°C° 0.5 mm 2 mps 623 mmHg 89%
    14:00 -2°C° 0.7 mm 2 mps 622 mmHg 90%
    15:00 -3°C° 0.7 mm 2 mps 622 mmHg 91%
    16:00 -3°C° 0.7 mm 2 mps 622 mmHg 92%
    17:00 -4°C° 0.9 mm 2 mps 622 mmHg 93%
    18:00 -5°C° 0.9 mm 2 mps 622 mmHg 94%
    19:00 -6°C° 0.9 mm 2 mps 623 mmHg 95%
    20:00 -6°C° 0.5 mm 2 mps 623 mmHg 94%
    21:00 -6°C° 0.5 mm 2 mps 624 mmHg 94%
    22:00 -7°C° 0.5 mm 2 mps 624 mmHg 94%
    23:00 -7°C° 0.5 mm 2 mps 624 mmHg 95%

    Day after tomorrow, 26 March, Tuesday

    Time Temperature Precipitation Wind Pressure Humidity
    00:00 -7°C° 0.5 mm 2 mps 625 mmHg 95%
    01:00 -6°C° 0.5 mm 1 mps 625 mmHg 95%
    02:00 -7°C° 0.6 mm 1 mps 625 mmHg 95%
    03:00 -7°C° 0.6 mm 1 mps 626 mmHg 95%
    04:00 -7°C° 0.6 mm 1 mps 626 mmHg 95%
    05:00 -7°C° 0.3 mm 1 mps 626 mmHg 95%
    06:00 -7°C° 0.3 mm 1 mps 627 mmHg 94%
    07:00 -7°C° 0.3 mm 1 mps 627 mmHg 94%
    08:00 -6°C° 0.2 mm 1 mps 627 mmHg 91%
    09:00 -4°C° 0.2 mm 1 mps 628 mmHg 87%
    10:00 -3°C° 0.2 mm 1 mps 628 mmHg 84%
    11:00 -2°C° 0.1 mm 1 mps 628 mmHg 83%
    12:00 -4°C° 0.1 mm 2 mps 628 mmHg 82%
    13:00 -3°C° 0.1 mm 2 mps 628 mmHg 81%
    14:00 -3°C° 0.1 mm 2 mps 628 mmHg 81%
    15:00 -3°C° 0.1 mm 2 mps 628 mmHg 82%
    16:00 -3°C° 0.1 mm 2 mps 628 mmHg 83%
    17:00 -2°C° 0.1 mm 1 mps 628 mmHg 87%
    18:00 -4°C° 0.1 mm 1 mps 628 mmHg 91%
    19:00 -6°C° 0.1 mm 1 mps 628 mmHg 95%
    20:00 -6°C° 0 mm 1 mps 628 mmHg 95%
    21:00 -7°C° 0 mm 0 mps 628 mmHg 95%
    22:00 -7°C° 0 mm 0 mps 629 mmHg 95%
    23:00 -7°C° 0 mm 0 mps 629 mmHg 95%

    27 March, Wednesday

    Time Temperature Precipitation Wind Pressure Humidity
    00:00 -7°C° 0 mm 0 mps 629 mmHg 95%
    01:00 -7°C° 0 mm 0 mps 629 mmHg 95%
    02:00 -7°C° 0.1 mm 0 mps 629 mmHg 95%
    03:00 -7°C° 0.1 mm 0 mps 629 mmHg 95%
    04:00 -7°C° 0.1 mm 0 mps 628 mmHg 95%
    05:00 -7°C° 0.1 mm 0 mps 629 mmHg 94%
    06:00 -7°C° 0.1 mm 0 mps 629 mmHg 93%
    07:00 -6°C° 0.1 mm 0 mps 629 mmHg 92%
    08:00 -4°C° 0.2 mm 1 mps 630 mmHg 89%
    09:00 -3°C° 0.2 mm 1 mps 630 mmHg 86%
    10:00 -2°C° 0.2 mm 1 mps 630 mmHg 83%
    11:00 -2°C° 0.2 mm 1 mps 630 mmHg 83%
    12:00 -1°C° 0.2 mm 1 mps 630 mmHg 83%
    13:00 -1°C° 0.2 mm 1 mps 631 mmHg 82%
    14:00 -1°C° 0.1 mm 1 mps 630 mmHg 83%
    15:00 -1°C° 0.1 mm 1 mps 630 mmHg 84%
    16:00 -1°C° 0.1 mm 1 mps 630 mmHg 85%
    17:00 -2°C° 0.1 mm 1 mps 630 mmHg 88%
    18:00 -3°C° 0.1 mm 1 mps 630 mmHg 92%
    19:00 -5°C° 0.1 mm 0 mps 630 mmHg 95%
    20:00 -5°C° 0 mm 0 mps 630 mmHg 95%
    21:00 -6°C° 0 mm 0 mps 630 mmHg 96%
    22:00 -7°C° 0 mm 1 mps 631 mmHg 96%
    23:00 -7°C° 0 mm 1 mps 631 mmHg 95%

    28 March, Thursday

    Time Temperature Precipitation Wind Pressure Humidity
    00:00 -7°C° 0 mm 1 mps 631 mmHg 95%
    01:00 -7°C° 0 mm 1 mps 631 mmHg 95%
    02:00 -7°C° 0 mm 1 mps 631 mmHg 94%
    03:00 -7°C° 0 mm 1 mps 630 mmHg 94%
    04:00 -8°C° 0 mm 1 mps 630 mmHg 93%
    05:00 -7°C° 0 mm 1 mps 630 mmHg 91%
    06:00 -7°C° 0 mm 1 mps 631 mmHg 90%
    07:00 -6°C° 0 mm 1 mps 631 mmHg 88%
    08:00 -3°C° 0 mm 1 mps 632 mmHg 86%
    09:00 -1°C° 0 mm 1 mps 632 mmHg 83%
    10:00 +1°C° 0 mm 1 mps 633 mmHg 81%
    11:00 +2°C° 0 mm 1 mps 633 mmHg 80%
    12:00 +2°C° 0 mm 1 mps 632 mmHg 79%
    13:00 +3°C° 0 mm 1 mps 632 mmHg 78%
    14:00 +3°C° 0 mm 1 mps 632 mmHg 80%
    15:00 +2°C° 0 mm 1 mps 632 mmHg 82%
    16:00 +2°C° 0 mm 1 mps 631 mmHg 85%
    17:00 +1°C° 0 mm 1 mps 631 mmHg 88%
    18:00 0°C° 0 mm 1 mps 631 mmHg 92%
    19:00 -3°C° 0 mm 0 mps 631 mmHg 96%
    20:00 -3°C° 0 mm 0 mps 631 mmHg 96%
    21:00 -3°C° 0 mm 1 mps 631 mmHg 96%
    22:00 -3°C° 0 mm 1 mps 631 mmHg 96%
    23:00 -4°C° 0 mm 1 mps 631 mmHg 95%

    29 March, Friday

    Time Temperature Precipitation Wind Pressure Humidity
    00:00 -4°C° 0 mm 1 mps 631 mmHg 94%
    01:00 -4°C° 0 mm 1 mps 631 mmHg 94%
    02:00 -4°C° 0 mm 1 mps 631 mmHg 93%
    03:00 -4°C° 0 mm 1 mps 631 mmHg 93%
    04:00 -6°C° 0 mm 1 mps 631 mmHg 92%
    05:00 -4°C° 0 mm 1 mps 631 mmHg 91%
    06:00 -4°C° 0 mm 1 mps 631 mmHg 90%
    07:00 -3°C° 0 mm 1 mps 631 mmHg 88%
    08:00 -1°C° 0 mm 1 mps 632 mmHg 83%
    09:00 +1°C° 0 mm 1 mps 633 mmHg 78%
    10:00 +4°C° 0 mm 1 mps 633 mmHg 73%
    11:00 +5°C° 0 mm 1 mps 633 mmHg 70%
    12:00 +6°C° 0 mm 1 mps 633 mmHg 68%
    13:00 +7°C° 0 mm 1 mps 633 mmHg 66%
    14:00 +6°C° 0 mm 1 mps 633 mmHg 68%
    15:00 +6°C° 0 mm 1 mps 632 mmHg 70%
    16:00 +6°C° 0 mm 1 mps 632 mmHg 72%
    17:00 +3°C° 0 mm 1 mps 631 mmHg 78%
    18:00 0°C° 0 mm 0 mps 631 mmHg 84%
    19:00 -2°C° 0 mm 0 mps 630 mmHg 89%
    20:00 -2°C° 0 mm 0 mps 630 mmHg 89%
    21:00 -2°C° 0 mm 1 mps 631 mmHg 89%
    22:00 -2°C° 0 mm 1 mps 631 mmHg 88%
    23:00 -2°C° 0 mm 1 mps 631 mmHg 88%
    Show more